Hourly Data Report for October 05, 2017

All times are specified in Local Standard Time (LST). Add 1 hour to adjust for Daylight Saving Time where and when it is observed.

IGLOOLIK A
NUNAVUT

69°21'53.000" N
81°48'59.000" W
52.70 m
2402546
YGT

Related Data

No related data is available for this station

Download Data

Hourly Data (October 2017)
Hourly Data Report for October 5, 2017
Temp Definition
°C
Dew Point Temp Definition
°C
Rel Hum Definition
%
Wind Dir Definition
10's deg

Wind Spd Definition
km/h
Visibility Definition
km
Stn Press Definition
kPa
Hmdx Definition


Wind Chill Definition


Weather Definition


TIME
00:00 Legend Double Dagger -3.1 -4.5 90 9 32 LegendMM 97.78   -11 LegendNANA
01:00 Legend Double Dagger -2.9 -4.9 86 10 33 LegendMM 97.85   -11 LegendNANA
02:00 Legend Double Dagger -2.7 -4.7 87 10 35 LegendMM 97.91   -11 LegendNANA
03:00 Legend Double Dagger -3.0 -4.5 89 9 41 LegendMM 98.00   -11 LegendNANA
04:00 Legend Double Dagger -3.1 -4.7 89 9 39 LegendMM 98.08   -11 LegendNANA
05:00 Legend Double Dagger -3.0 -4.3 91 8 35 LegendMM 98.13   -11 LegendNANA
06:00 Legend Double Dagger -2.9 -4.7 87 10 38 LegendMM 98.23   -11 LegendNANA
07:00 Legend Double Dagger -2.5 -3.2 95 10 36 LegendMM 98.32   -10 LegendNANA
08:00 Legend Double Dagger -2.1 -4.5 83 10 34 LegendMM 98.44   -10 LegendNANA
09:00 Legend Double Dagger -2.3 -4.4 85 10 32 LegendMM 98.53   -10 LegendNANA
10:00 Legend Double Dagger -2.0 -3.6 89 8 37 LegendMM 98.59   -10 LegendNANA
11:00 Legend Double Dagger -2.3 -3.3 93 9 37 LegendMM 98.64   -10 LegendNANA
12:00 Legend Double Dagger -2.1 -3.8 88 8 32 LegendMM 98.68   -9 LegendNANA
13:00 Legend Double Dagger -2.1 -4.1 86 7 30 LegendMM 98.74   -9 LegendNANA
14:00 Legend Double Dagger -2.5 -4.8 84 6 27 LegendMM 98.80   -9 LegendNANA
15:00 Legend Double Dagger -2.5 -4.1 88 7 22 LegendMM 98.86   -9 LegendNANA
16:00 Legend Double Dagger -2.3 -3.4 92 8 19 LegendMM 98.94   -8 LegendNANA
17:00 Legend Double Dagger -2.9 -4.1 91 7 19 LegendMM 98.99   -9 LegendNANA
18:00 Legend Double Dagger -1.9 -3.1 92 7 24 LegendMM 99.07   -8 LegendNANA
19:00 Legend Double Dagger -1.9 -3.3 90 6 24 LegendMM 99.09   -8 LegendNANA
20:00 Legend Double Dagger -2.1 -2.5 97 5 26 LegendMM 99.09   -9 LegendNANA
21:00 Legend Double Dagger -1.8 -2.1 98 3 30 LegendMM 99.05   -9 LegendNANA
22:00 Legend Double Dagger -0.7 -1.0 98 9 39 LegendMM 99.05   -8 LegendNANA
23:00 Legend Double Dagger -0.9 -1.3 97 9 44 LegendMM 99.07   -9 LegendNANA

Notes on Data Quality.

Legend

  • E = Estimated
  • M = Missing
  • NA = Not Available
  • ‡ = Partner data that is not subject to review by the National Climate Archives
Date modified: